Regional Weather Roundup
Issued by NWS

Home | Current Version | Previous Version | Graphics & Text | Print | Product List | Glossary On
Versions: 1 2 3 4 5 6 7 8 9 10 11 12 13 14 15 16 17 18 19 20 21 22 23 24 25 26 27 28 29 30 31 32 33 34 35 36 37 38 39 40 41 42 43 44 45 46 47 48 49 50
000
ASUS44 KMEG 280910
RWRTN
TENNESSEE HOURLY STATE WEATHER ROUNDUP
NATIONAL WEATHER SERVICE MEMPHIS TN
400 AM CDT TUE APR 28 2015

TNZ002-004-019-021-049-052-054-088>092-281000-
WEST TENNESSEE

CITY           SKY/WX    TMP DP  RH WIND       PRES   REMARKS
MEMPHIS INTL   CLOUDY    56  40  55 NE9       29.96R
NWS MEMPHIS      N/A     53 N/A N/A MISG        N/A
JACKSON        MOCLDY    48  41  76 NE7       29.99R
DYERSBURG      MOCLDY    52  32  46 NE8       30.02R
UNION CITY     CLEAR     46  32  57 NE3       30.01R
PARIS          CLEAR     45  39  81 NE5       30.01R
LEXINGTON      CLEAR     45  39  81 N3        29.97R
SAVANNAH       CLEAR     39  32  75 CALM      29.96S
$$

TNZ008-025-027-028-033-062-065-066-281000-
NORTH MIDDLE TENNESSEE

CITY           SKY/WX    TMP DP  RH WIND       PRES   REMARKS
NASHVILLE      CLEAR     47  40  76 NE7       29.98S
CLARKSVILLE    CLEAR     47  39  74 NE7       30.00S
SMYRNA         CLEAR     48  40  74 NE9       29.98S
COOKEVILLE     CLEAR     39  37  93 CALM      29.95S
CROSSVILLE     CLEAR     44  34  67 NE5       29.97S
$$

TNZ061-075-076-078-094-096-097-281000-
SOUTH MIDDLE TENNESSEE

CITY           SKY/WX    TMP DP  RH WIND       PRES   REMARKS
FAYETTEVILLE     N/A     43  36  75 NE5       29.94R
TULLAHOMA      CLEAR     37  36  93 CALM      29.96R
WINCHESTER     CLEAR     41  39  93 NE3       29.94S
MCMINNVILLE    CLEAR     43  41  93 CALM      29.95S
COLUMBIA       CLEAR     41  32  70 CALM      29.95R
SHELBYVILLE    CLEAR     39  39 100 SW3       29.97R
$$

TNZ017-018-042-046-047-281000-
NORTHEAST TENNESSEE

CITY           SKY/WX    TMP DP  RH WIND       PRES   REMARKS
TRI CITIES     PTCLDY    37  36  96 CALM      29.99R
ELIZABETHTON   SUNNY     34  32  93 CALM      29.99R
$$

TNZ012-013-036-069-073-074-281000-
CENTRAL EAST TENNESSEE

CITY           SKY/WX    TMP DP  RH WIND       PRES   REMARKS
KNOXVILLE      CLEAR     45  39  79 NE6       29.95F
OAK RIDGE      CLEAR     43  39  86 CALM      29.97F
GATLINBURG     SUNNY     37  37 100 CALM      29.96S
MORRISTOWN     SUNNY     39  37  93 NE3       29.98S
$$

TNZ083-085-099-281000-
SOUTHEAST TENNESSEE

CITY           SKY/WX    TMP DP  RH WIND       PRES   REMARKS
CHATTANOOGA    CLEAR     51  38  60 N5        29.94R
$$

SKY/WX REPORTED AS FAIR MEANS FEW OR NO CLOUDS BELOW
12 THOUSAND FEET.




USA.gov is the U.S. government's official web portal to all federal, state and local government web resources and services.